Location: Fontevrault
(47.1823°N, 0.0493°E)
Time: 14:09:41
(UTC+00:00)

Lacrosse 5 - Pass Details

Date: 04 November 2021
Orbit: 714 x 724 km, 57.0° (Epoch: 28 August)

Event Time Altitude Azimuth Distance (km) Brightness Sun altitude
Rises 17:49:14 0° 228° (SW) 3,128 6.2 -12.4°
Reaches altitude 10° 17:51:36 10° 228° (SW) 2,210 5.3 -12.8°
Maximum altitude 17:56:42 85° 140° (SE) 733 1.8 -13.6°
Enters shadow 18:00:35 18° 53° (NE) 1,749 3.3 -14.3°
